Gustavus, AK

2:55 AM AKDT on September 21, 2017 (GMT -0800)
Gustavus

Weather History for PAGS - December, 2012

Change the Weather History Date:

Wednesday, December 19, 2012

  Actual Average Record
Temperature  
Mean Temperature 21 °F -  
Max Temperature 30 °F 32 °F 46 °F (1954)
Min Temperature 12 °F 22 °F -3 °F (1951)
Degree Days  
Heating Degree Days 44    
Moisture  
Dew Point 12 °F    
Average Humidity 63    
Maximum Humidity 85    
Minimum Humidity 43    
Precipitation  
Precipitation 0.00 in - - ()
Sea Level Pressure  
Sea Level Pressure 29.35 in    
Wind  
Wind Speed 3 mph (NNW)    
Max Wind Speed 9 mph    
Max Gust Speed -    
Visibility 10 miles    
Events      
Averages and records for this station are not official NWS values.
T = Trace of Precipitation, MM = Missing Value Source: NWS Daily Summary

Daily Weather History Graph

Daily Weather History Graph

Search for Another Location

Airport or City:

Trip Planner

Search our weather history database for the weather conditions in past years. The results will help you decide how hot, cold, wet, or windy it might be!

Date:

Astronomy

Dec. 19, 2012 Rise Set
Actual Time 8:49 AM AKST 3:10 PM AKST
Civil Twilight 7:56 AM AKST 4:03 PM AKST
Nautical Twilight 7:03 AM AKST 4:57 PM AKST
Astronomical Twilight 6:14 AM AKST 5:46 PM AKST
Moon 11:27 AM AKST (12/19) No Moon Set
Length of Visible Light 8h 06m
Length of Day
6h 20m
Waxing Crescent, 46% of the Moon is Illuminated
Dec 19
Waxing Crescent
Dec 19
First Quarter
Dec 28
Full
Jan 4
Last Quarter
Jan 11
New

Hourly Weather History & Observations

Time (AKST) Temp. Windchill Dew Point Humidity Pressure Visibility Wind Dir Wind Speed Gust Speed Precip Events Conditions
12:16 AM 17.6 °F - 12.2 °F 79% 29.31 in 10.0 mi Calm Calm - N/A   Partly Cloudy
12:36 AM 15.8 °F - 8.6 °F 73% 29.30 in 10.0 mi Calm Calm - N/A   Clear
12:56 AM 17.6 °F 10.7 °F 10.4 °F 73% 29.30 in 10.0 mi WSW 4.6 mph - N/A   Scattered Clouds
1:16 AM 17.6 °F 9.3 °F 10.4 °F 73% 29.29 in 10.0 mi North 5.8 mph - N/A   Mostly Cloudy
1:36 AM 17.6 °F 9.3 °F 10.4 °F 73% 29.29 in 10.0 mi NE 5.8 mph - N/A   Scattered Clouds
1:56 AM 17.6 °F - 10.4 °F 73% 29.28 in 10.0 mi Calm Calm - N/A   Mostly Cloudy
2:16 AM 15.8 °F 7.2 °F 8.6 °F 73% 29.27 in 10.0 mi WNW 5.8 mph - N/A   Mostly Cloudy
2:36 AM 15.8 °F - 8.6 °F 73% 29.27 in 10.0 mi Calm Calm - N/A   Scattered Clouds
2:56 AM 14.0 °F - 8.6 °F 79% 29.26 in 10.0 mi Calm Calm - N/A   Clear
3:16 AM 14.0 °F - 8.6 °F 79% 29.26 in 10.0 mi Calm Calm - N/A   Clear
3:36 AM 14.0 °F - 8.6 °F 79% 29.26 in 10.0 mi Calm Calm - N/A   Clear
3:56 AM 12.2 °F - 6.8 °F 79% 29.25 in 10.0 mi North - - N/A   Partly Cloudy
4:16 AM 14.0 °F - 8.6 °F 79% 29.25 in 10.0 mi Calm Calm - N/A   Scattered Clouds
4:36 AM 14.0 °F - 8.6 °F 79% 29.24 in 10.0 mi Calm Calm - N/A   Mostly Cloudy
4:56 AM 12.2 °F - 6.8 °F 79% 29.24 in 10.0 mi Calm Calm - N/A   Scattered Clouds
5:16 AM 12.2 °F 4.3 °F 6.8 °F 79% 29.24 in 10.0 mi NNW 4.6 mph - N/A   Clear
5:36 AM 12.2 °F - 8.6 °F 85% 29.23 in 10.0 mi Calm Calm - N/A   Clear
5:56 AM 14.0 °F - 8.6 °F 79% 29.24 in 10.0 mi Calm Calm - N/A   Partly Cloudy
6:16 AM 15.8 °F - 8.6 °F 73% 29.24 in 10.0 mi Calm Calm - N/A   Mostly Cloudy
6:36 AM 15.8 °F - 10.4 °F 79% 29.24 in 10.0 mi Calm Calm - N/A   Overcast
6:56 AM 17.6 °F - 12.2 °F 79% 29.24 in 10.0 mi Calm Calm - N/A   Overcast
7:16 AM 19.4 °F 9.5 °F 12.2 °F 74% 29.25 in 10.0 mi NNE 8.1 mph - N/A   Overcast
7:36 AM 19.4 °F 14.3 °F 12.2 °F 74% 29.25 in 10.0 mi North 3.5 mph - N/A   Overcast
7:56 AM 19.4 °F - 12.2 °F 74% 29.25 in 10.0 mi Calm Calm - N/A   Overcast
8:16 AM 24.8 °F 20.5 °F 15.8 °F 69% 29.25 in 10.0 mi NE 3.5 mph - N/A   Overcast
8:36 AM 26.6 °F - 14.0 °F 59% 29.27 in 10.0 mi Calm Calm - N/A   Overcast
8:56 AM 26.6 °F 21.2 °F 14.0 °F 59% 29.27 in 10.0 mi NNW 4.6 mph - N/A   Overcast
9:16 AM 24.8 °F 19.1 °F 15.8 °F 69% 29.28 in 10.0 mi North 4.6 mph - N/A   Overcast
9:36 AM 28.4 °F 19.7 °F 15.8 °F 59% 29.28 in 10.0 mi North 9.2 mph - N/A   Overcast
9:56 AM 28.4 °F - 15.8 °F 59% 29.28 in 10.0 mi Calm Calm - N/A   Mostly Cloudy
10:16 AM 26.6 °F 21.2 °F 14.0 °F 59% 29.29 in 10.0 mi WNW 4.6 mph - N/A   Partly Cloudy
10:36 AM 28.4 °F - 14.0 °F 55% 29.30 in 10.0 mi Calm Calm - N/A   Scattered Clouds
10:56 AM 26.6 °F 22.6 °F 15.8 °F 64% 29.30 in 10.0 mi NW 3.5 mph - N/A   Mostly Cloudy
11:16 AM 26.6 °F 22.6 °F 15.8 °F 64% 29.31 in 10.0 mi North 3.5 mph - N/A   Mostly Cloudy
11:36 AM 26.6 °F - 15.8 °F 64% 29.31 in 10.0 mi Calm Calm - N/A   Overcast
11:56 AM 26.6 °F 22.6 °F 15.8 °F 64% 29.31 in 10.0 mi North 3.5 mph - N/A   Overcast
12:16 PM 28.4 °F 23.3 °F 15.8 °F 59% 29.31 in 10.0 mi North 4.6 mph - N/A   Overcast
12:36 PM 28.4 °F 20.4 °F 15.8 °F 59% 29.32 in 10.0 mi North 8.1 mph - N/A   Mostly Cloudy
12:56 PM 28.4 °F 23.3 °F 15.8 °F 59% 29.32 in 10.0 mi North 4.6 mph - N/A   Scattered Clouds
1:16 PM 28.4 °F 23.3 °F 15.8 °F 59% 29.33 in 10.0 mi North 4.6 mph - N/A   Mostly Cloudy
1:36 PM 28.4 °F 23.3 °F 17.6 °F 64% 29.33 in 10.0 mi NNW 4.6 mph - N/A   Scattered Clouds
1:56 PM 28.4 °F 22.2 °F 15.8 °F 59% 29.34 in 10.0 mi North 5.8 mph - N/A   Mostly Cloudy
2:16 PM 28.4 °F 23.3 °F 15.8 °F 59% 29.35 in 10.0 mi NNW 4.6 mph - N/A   Mostly Cloudy
2:36 PM 28.4 °F 23.3 °F 15.8 °F 59% 29.35 in 10.0 mi NW 4.6 mph - N/A   Scattered Clouds
2:56 PM 28.4 °F 22.2 °F 15.8 °F 59% 29.35 in 10.0 mi North 5.8 mph - N/A   Mostly Cloudy
3:16 PM 28.4 °F 21.2 °F 14.0 °F 55% 29.36 in 10.0 mi NNW 6.9 mph - N/A   Mostly Cloudy
3:36 PM 30.2 °F 21.9 °F 12.2 °F 47% 29.36 in 10.0 mi North 9.2 mph - N/A   Mostly Cloudy
3:56 PM 28.4 °F 22.2 °F 12.2 °F 51% 29.37 in 10.0 mi NNW 5.8 mph - N/A   Overcast
4:16 PM 28.4 °F 24.6 °F 15.8 °F 59% 29.38 in 10.0 mi NNW 3.5 mph - N/A   Overcast
4:36 PM 28.4 °F 24.6 °F 15.8 °F 59% 29.38 in 10.0 mi NNW 3.5 mph - N/A   Overcast
4:56 PM 28.4 °F 24.6 °F 14.0 °F 55% 29.40 in 10.0 mi North 3.5 mph - N/A   Overcast
5:16 PM 28.4 °F 24.6 °F 14.0 °F 55% 29.40 in 10.0 mi NNE 3.5 mph - N/A   Overcast
5:36 PM 28.4 °F 23.3 °F 12.2 °F 51% 29.41 in 10.0 mi NNW 4.6 mph - N/A   Overcast
5:56 PM 26.6 °F - 14.0 °F 59% 29.42 in 10.0 mi Calm Calm - N/A   Overcast
6:16 PM 28.4 °F - 12.2 °F 51% 29.43 in 10.0 mi Calm Calm - N/A   Mostly Cloudy
6:36 PM 28.4 °F 22.2 °F 12.2 °F 51% 29.44 in 10.0 mi North 5.8 mph - N/A   Scattered Clouds
6:56 PM 26.6 °F 21.2 °F 12.2 °F 55% 29.45 in 10.0 mi NNW 4.6 mph - N/A   Overcast
7:16 PM 28.4 °F - 12.2 °F 51% 29.46 in 10.0 mi Calm Calm - N/A   Overcast
7:36 PM 24.8 °F 20.5 °F 12.2 °F 59% 29.47 in 10.0 mi North 3.5 mph - N/A   Overcast
7:56 PM 26.6 °F - 12.2 °F 55% 29.48 in 10.0 mi Calm Calm - N/A   Overcast
8:16 PM 24.8 °F 19.1 °F 10.4 °F 54% 29.49 in 10.0 mi NNW 4.6 mph - N/A   Partly Cloudy
8:36 PM 26.6 °F 19.1 °F 12.2 °F 55% 29.50 in 10.0 mi NNW 6.9 mph - N/A   Clear
8:56 PM 24.8 °F 19.1 °F 10.4 °F 54% 29.51 in 10.0 mi NW 4.6 mph - N/A   Scattered Clouds
9:16 PM 26.6 °F 19.1 °F 10.4 °F 51% 29.52 in 10.0 mi NNW 6.9 mph - N/A   Overcast
9:36 PM 28.4 °F 23.3 °F 8.6 °F 43% 29.52 in 10.0 mi NNW 4.6 mph - N/A   Mostly Cloudy
9:56 PM 26.6 °F 19.1 °F 10.4 °F 51% 29.54 in 10.0 mi NNW 6.9 mph - N/A   Scattered Clouds
10:16 PM 26.6 °F 20.0 °F 10.4 °F 51% 29.55 in 10.0 mi NNW 5.8 mph - N/A   Mostly Cloudy
10:36 PM 26.6 °F 21.2 °F 10.4 °F 51% 29.55 in 10.0 mi NNW 4.6 mph - N/A   Overcast
10:56 PM 26.6 °F 19.1 °F 10.4 °F 51% 29.56 in 10.0 mi NW 6.9 mph - N/A   Overcast
11:16 PM 26.6 °F 20.0 °F 10.4 °F 51% 29.57 in 10.0 mi NNE 5.8 mph - N/A   Mostly Cloudy
11:36 PM 24.8 °F 17.9 °F 10.4 °F 54% 29.57 in 10.0 mi NNW 5.8 mph - N/A   Scattered Clouds
11:56 PM 24.8 °F 19.1 °F 10.4 °F 54% 29.58 in 10.0 mi NNW 4.6 mph - N/A   Clear